Terminal Aerodrome Forecast
Issued by NWS

Home | Current Version | Previous Version | Text Only | Print | Product List | Glossary On
Versions: 1 2 3 4 5 6 7 8 9 10 11 12 13 14 15 16
000
FTUS42 KMHX 260541
TAFISO
TAF
KISO 260541Z 2606/2706 00000KT 2SM -DZ BR OVC002
     FM261000 05004KT 5SM BR VCTS BKN004 OVC015CB
     FM261400 03005KT P6SM OVC007
     FM261800 02009KT P6SM OVC015
     FM270000 VRB03KT P6SM BKN050
      AMD LTD TO CLD VIS AND WIND=

USA.gov is the U.S. government's official web portal to all federal, state and local government web resources and services.